Weather History for EDDH - August, 2013

Change the Weather History Date:

Wednesday, August 7, 2013

  Actual Average Record
Temperature  
Mean Temperature 64 °F -  
Max Temperature 76 °F 69 °F 87 °F (2003)
Min Temperature 51 °F 52 °F 50 °F (2005)
Degree Days  
Heating Degree Days 2    
Growing Degree Days 14 (Base 50)    
Moisture  
Dew Point 54 °F    
Average Humidity 67    
Maximum Humidity 94    
Minimum Humidity 36    
Precipitation  
Precipitation 0.24 in 0.09 in - ()
Sea Level Pressure  
Sea Level Pressure 29.94 in    
Wind  
Wind Speed 5 mph ()    
Max Wind Speed 16 mph    
Max Gust Speed -    
Visibility 8.0 miles    
Events Fog , Rain    
Averages and records for this station are not official NWS values.
T = Trace of Precipitation, MM = Missing Value Source: Averaged Metar Reports

Daily Weather History Graph

Daily Weather History Graph

Search for Another Location

Airport or City:

Trip Planner

Search our weather history database for the weather conditions in past years. The results will help you decide how hot, cold, wet, or windy it might be!

Date:

Astronomy

Aug. 07, 2013 Rise Set
Actual Time 5:45 AM CEST 9:05 PM CEST
Civil Twilight 5:03 AM CEST 9:47 PM CEST
Nautical Twilight 4:06 AM CEST 10:43 PM CEST
Astronomical Twilight 2:43 AM CEST 12:03 AM CEST
Moon 6:32 AM CEST (8/7) 8:43 PM CEST (8/7)
Length of Visible Light 16h 43m
Length of Day
15h 19m
New Moon, 0% of the Moon is Illuminated
Aug 7
New Moon
Aug 14
First Quarter
Aug 21
Full
Aug 28
Last Quarter
Sep 5
New

Hourly Weather History & Observations

Time (CEST) Temp. Dew Point Humidity Pressure Visibility Wind Dir Wind Speed Gust Speed Precip Events Conditions
12:20 AM 62.6 °F 55.4 °F 77% 30.01 in - NW 4.6 mph - N/A   Clear
12:50 AM 60.8 °F 55.4 °F 82% 30.01 in - NNW 3.5 mph - N/A   Clear
1:00 AM 61 °F 54 °F 73% 30.01 in 22 mi NNW 2.2 mph - -   Mostly Cloudy
1:20 AM 60.8 °F 55.4 °F 82% 29.98 in - NNW 2.3 mph - N/A   Clear
1:50 AM 59.0 °F 53.6 °F 82% 29.98 in - NNW 2.3 mph - N/A   Clear
2:00 AM 58 °F 53 °F 78% 29.99 in 22 mi NNW 2.2 mph - -   Partly Cloudy
2:20 AM 57.2 °F 53.6 °F 88% 29.98 in - NNW 3.5 mph - N/A   Clear
2:50 AM 55.4 °F 53.6 °F 94% 29.98 in - NNW 2.3 mph - N/A   Clear
3:00 AM 56 °F 53 °F 87% 30.00 in 22 mi NW 2.2 mph - -   Scattered Clouds
3:20 AM 55.4 °F 53.6 °F 94% 30.01 in - Variable 1.2 mph - N/A   Clear
3:50 AM 55.4 °F 53.6 °F 94% 29.98 in - NNW 3.5 mph - N/A   Clear
4:00 AM 55 °F 53 °F 90% 30.00 in 19 mi NNW 4.5 mph - -   Scattered Clouds
4:20 AM 53.6 °F 51.8 °F 94% 29.98 in - NW 3.5 mph - N/A   Clear
4:50 AM 51.8 °F 50.0 °F 94% 30.01 in - NW 4.6 mph - N/A   Clear
5:20 AM 53.6 °F 51.8 °F 94% 30.01 in - North 3.5 mph - N/A   Clear
5:50 AM 53.6 °F 51.8 °F 94% 30.01 in - NW 2.3 mph - N/A   Clear
6:00 AM 53 °F 51 °F 91% 30.01 in 19 mi NNW 4.5 mph - -   Scattered Clouds
6:20 AM 53.6 °F 51.8 °F 94% 30.01 in 6.2 mi NNW 3.5 mph - N/A Fog Shallow Fog
6:50 AM 55.4 °F 53.6 °F 94% 30.01 in - NW 2.3 mph - N/A   Clear
7:00 AM 56 °F 53 °F 86% 30.01 in 19 mi NNW 2.2 mph - -   Scattered Clouds
7:20 AM 59.0 °F 53.6 °F 82% 29.98 in - North 5.8 mph - N/A   Clear
7:50 AM 60.8 °F 53.6 °F 77% 29.98 in - NNE 5.8 mph - N/A   Clear
8:00 AM 61 °F 53 °F 66% 29.99 in 22 mi NNE 4.5 mph - -   Scattered Clouds
8:20 AM 62.6 °F 53.6 °F 72% 29.98 in - NNE 8.1 mph - N/A   Clear
8:50 AM 64.4 °F 51.8 °F 64% 29.98 in - NNE 6.9 mph - N/A   Clear
9:00 AM 64 °F 51 °F 54% 30.00 in 22 mi NNE 6.7 mph - -   Clear
9:20 AM 64.4 °F 48.2 °F 56% 30.01 in - NNE 5.8 mph - N/A   Clear
9:50 AM 64.4 °F 50.0 °F 59% 29.98 in 6.2 mi NNE 6.9 mph - N/A   Scattered Clouds
10:20 AM 66.2 °F 50.0 °F 56% 29.98 in 6.2 mi North 8.1 mph - N/A   Scattered Clouds
10:50 AM 68.0 °F 51.8 °F 56% 29.98 in 6.2 mi ENE 8.1 mph - N/A   Scattered Clouds
11:20 AM 68.0 °F 53.6 °F 60% 29.98 in 6.2 mi Variable 6.9 mph - N/A   Scattered Clouds
11:50 AM 69.8 °F 51.8 °F 53% 29.98 in 6.2 mi ENE 5.8 mph - N/A   Scattered Clouds
12:00 PM 69 °F 51 °F 42% 29.99 in 22 mi ENE 4.5 mph - -   Scattered Clouds
12:20 PM 69.8 °F 51.8 °F 53% 29.98 in 6.2 mi Variable 3.5 mph - N/A   Scattered Clouds
12:50 PM 71.6 °F 51.8 °F 50% 29.95 in 6.2 mi ENE 6.9 mph - N/A   Scattered Clouds
1:00 PM 71 °F 52 °F 41% 29.97 in 22 mi ENE 6.7 mph - -   Scattered Clouds
1:20 PM 71.6 °F 53.6 °F 53% 29.95 in 6.2 mi East 5.8 mph - N/A   Scattered Clouds
1:50 PM 71.6 °F 53.6 °F 53% 29.95 in 6.2 mi ENE 6.9 mph - N/A   Mostly Cloudy
2:00 PM 72 °F 54 °F 42% 29.95 in 22 mi ENE 6.7 mph - - Rain Light Rain
2:20 PM 71.6 °F 53.6 °F 53% 29.92 in 6.2 mi ENE 6.9 mph - N/A   Mostly Cloudy
2:50 PM 71.6 °F 53.6 °F 53% 29.92 in 6.2 mi ENE 8.1 mph - N/A   Mostly Cloudy
3:00 PM 72 °F 54 °F 43% 29.92 in 22 mi ENE 6.7 mph - -   Scattered Clouds
3:20 PM 75.2 °F 53.6 °F 47% 29.92 in 6.2 mi ENE 10.4 mph - N/A   Mostly Cloudy
3:50 PM 75.2 °F 53.6 °F 47% 29.89 in 6.2 mi ENE 10.4 mph - N/A   Mostly Cloudy
4:00 PM 75 °F 53 °F 36% 29.91 in 16 mi ENE 11.2 mph - - Rain Light Rain
4:20 PM 75.2 °F 55.4 °F 50% 29.89 in 6.2 mi ENE 12.7 mph - N/A   Mostly Cloudy
4:50 PM 75.2 °F 55.4 °F 50% 29.89 in 6.2 mi NE 12.7 mph - N/A   Mostly Cloudy
5:20 PM 73.4 °F 55.4 °F 53% 29.89 in 6.2 mi ENE 11.5 mph - N/A   Mostly Cloudy
5:50 PM 71.6 °F 55.4 °F 57% 29.89 in - NE 13.8 mph - N/A   Clear
6:00 PM 72 °F 55 °F 44% 29.89 in 22 mi NE 13.4 mph - -   Partly Cloudy
6:20 PM 71.6 °F 55.4 °F 57% 29.86 in - ENE 11.5 mph - N/A   Clear
6:50 PM 71.6 °F 55.4 °F 57% 29.86 in 6.2 mi NE 11.5 mph - N/A   Mostly Cloudy
7:00 PM 72 °F 54 °F 44% 29.88 in 22 mi NE 11.2 mph - -   Scattered Clouds
7:20 PM 69.8 °F 53.6 °F 56% 29.86 in 6.2 mi NE 10.4 mph - N/A   Mostly Cloudy
7:50 PM 69.8 °F 55.4 °F 60% 29.86 in 6.2 mi NE 8.1 mph - N/A   Mostly Cloudy
8:00 PM 69 °F 54 °F 49% 29.87 in 22 mi NE 6.7 mph - -   Partly Cloudy
8:20 PM 68.0 °F 55.4 °F 64% 29.86 in 6.2 mi ENE 15.0 mph - N/A   Mostly Cloudy
8:50 PM 68.0 °F 55.4 °F 64% 29.86 in 6.2 mi ENE 16.1 mph - N/A   Mostly Cloudy
9:00 PM 67 °F 55 °F 57% 29.87 in 22 mi ENE 15.7 mph - -   Scattered Clouds
9:20 PM 68.0 °F 57.2 °F 68% 29.86 in 6.2 mi ENE 10.4 mph - N/A   Mostly Cloudy
9:50 PM 66.2 °F 57.2 °F 73% 29.83 in 6.2 mi ENE 9.2 mph - N/A   Mostly Cloudy
10:00 PM 67 °F 56 °F 61% 29.86 in 19 mi ENE 11.2 mph - -   Mostly Cloudy
10:20 PM 66.2 °F 59.0 °F 78% 29.86 in 6.2 mi ENE 8.1 mph - N/A   Mostly Cloudy
10:50 PM 66.2 °F 59.0 °F 78% 29.83 in 6.2 mi ENE 10.4 mph - N/A   Mostly Cloudy
11:20 PM 66.2 °F 59.0 °F 78% 29.83 in 6.2 mi East 8.1 mph - N/A Rain Light Rain
11:50 PM 64.4 °F 60.8 °F 88% 29.86 in 6.2 mi ESE 3.5 mph - N/A Rain Rain